Change the Weather History Date:

Sunday, October 6, 2013

  Actual Average Record
Temperature  
Mean Temperature 73 °F -  
Max Temperature 87 °F 76 °F 88 °F (2006)
Min Temperature 60 °F 56 °F 45 °F (2010)
Cooling Degree Days 8    
Growing Degree Days 23 (Base 50)    
Moisture  
Dew Point 65 °F    
Average Humidity 93    
Maximum Humidity 100    
Minimum Humidity 55    
Precipitation  
Precipitation 0.04 in - - ()
Sea Level Pressure  
Sea Level Pressure 29.99 in    
Wind  
Wind Speed 2 mph (SE)    
Max Wind Speed 13 mph    
Max Gust Speed -    
Visibility 6 miles    
Events Fog , Rain    
Averages and records for this station are not official NWS values.
T = Trace of Precipitation, MM = Missing Value Source: NWS Daily Summary

Daily Weather History Graph

Daily Weather History Graph

Search for Another Location

Airport or City:

Trip Planner

Search our weather history database for the weather conditions in past years. The results will help you decide how hot, cold, wet, or windy it might be!

Date:

Astronomy

Oct. 06, 2013 Rise Set
Actual Time 7:32 AM EDT 7:12 PM EDT
Civil Twilight 7:07 AM EDT 7:36 PM EDT
Nautical Twilight 6:38 AM EDT 8:05 PM EDT
Astronomical Twilight 6:10 AM EDT 8:33 PM EDT
Moon 9:08 AM EDT (10/6) 8:19 PM EDT (10/6)
Length of Visible Light 12h 29m
Length of Day
11h 40m
Waxing Crescent, 3% of the Moon is Illuminated
Oct 6
Waxing Crescent
Oct 11
First Quarter
Oct 18
Full
Oct 26
Last Quarter
Nov 3
New

Hourly Weather History & Observations

Time (EDT) Temp. Heat Index Dew Point Humidity Pressure Visibility Wind Dir Wind Speed Gust Speed Precip Events Conditions
12:03 AM 68.0 °F - 66.2 °F 94% 30.04 in 10.0 mi Calm Calm - N/A   Clear
12:13 AM 66.2 °F - 66.2 °F 100% 30.04 in 9.0 mi NNW 1.2 mph - N/A   Clear
12:33 AM 66.2 °F - 66.2 °F 100% 30.04 in 4.0 mi Calm Calm - N/A   Clear
12:38 AM 66.2 °F - 66.2 °F 100% 30.03 in 1.0 mi Calm Calm - N/A   Clear
12:43 AM 66.2 °F - 64.4 °F 94% 30.03 in 0.5 mi Calm Calm - N/A Fog Fog
12:48 AM 66.2 °F - 66.2 °F 100% 30.03 in 0.8 mi Calm Calm - N/A   Clear
12:53 AM 66.2 °F - 66.2 °F 100% 30.03 in 1.8 mi Calm Calm - N/A   Clear
12:58 AM 66.7 °F - 66.0 °F 98% 30.03 in 6.0 mi Calm Calm - N/A   Clear
1:03 AM 66.2 °F - 66.2 °F 100% 30.03 in 2.5 mi Calm Calm - N/A   Clear
1:08 AM 66.2 °F - 64.4 °F 94% 30.03 in 1.2 mi SSE 1.2 mph - N/A   Clear
1:13 AM 66.2 °F - 66.2 °F 100% 30.03 in 2.0 mi Calm Calm - N/A   Clear
1:18 AM 66.2 °F - 66.2 °F 100% 30.03 in 6.0 mi Calm Calm - N/A   Clear
1:23 AM 66.2 °F - 64.4 °F 94% 30.03 in 7.0 mi SE 1.2 mph - N/A   Clear
1:28 AM 64.4 °F - 64.4 °F 100% 30.03 in 2.0 mi Calm Calm - N/A   Clear
1:33 AM 66.2 °F - 64.4 °F 94% 30.02 in 1.0 mi Calm Calm - N/A   Clear
1:38 AM 66.2 °F - 64.4 °F 94% 30.02 in 1.0 mi Calm Calm - N/A   Clear
1:43 AM 64.4 °F - 64.4 °F 100% 30.02 in 1.8 mi Calm Calm - N/A   Clear
1:48 AM 66.2 °F - 64.4 °F 94% 30.03 in 9.0 mi Calm Calm - N/A   Clear
1:58 AM 65.7 °F - 64.9 °F 98% 30.02 in 10.0 mi South 1.2 mph - N/A   Clear
2:33 AM 64.4 °F - 64.4 °F 100% 30.01 in 9.0 mi Calm Calm - N/A   Clear
2:48 AM 64.4 °F - 64.4 °F 100% 30.01 in 4.0 mi SE 2.3 mph - N/A   Clear
2:58 AM 64.2 °F - 63.1 °F 96% 30.01 in 8.0 mi ESE 4.6 mph - N/A   Clear
3:03 AM 64.4 °F - 62.6 °F 94% 30.00 in 10.0 mi East 2.3 mph - N/A   Clear
3:53 AM 64.4 °F - 64.4 °F 100% 30.00 in 9.0 mi SE 3.5 mph - N/A   Clear
3:58 AM 64.4 °F - 63.5 °F 97% 30.00 in 9.0 mi SE 3.5 mph - N/A   Clear
4:03 AM 64.4 °F - 62.6 °F 94% 30.00 in 9.0 mi SE 3.5 mph - N/A   Clear
4:23 AM 62.6 °F - 62.6 °F 100% 29.99 in 8.0 mi ESE 2.3 mph - N/A   Clear
4:28 AM 62.6 °F - 62.6 °F 100% 29.99 in 4.0 mi ESE 2.3 mph - N/A   Clear
4:48 AM 62.6 °F - 62.6 °F 100% 29.99 in 3.0 mi ESE 2.3 mph - N/A   Clear
4:53 AM 62.6 °F - 62.6 °F 100% 29.99 in 5.0 mi ESE 2.3 mph - N/A   Clear
4:58 AM 63.3 °F - 62.8 °F 98% 29.99 in 8.0 mi ESE 2.3 mph - N/A   Clear
5:03 AM 62.6 °F - 62.6 °F 100% 29.99 in 5.0 mi ESE 2.3 mph - N/A   Clear
5:08 AM 62.6 °F - 62.6 °F 100% 29.99 in 3.0 mi Calm Calm - N/A   Clear
5:18 AM 62.6 °F - 62.6 °F 100% 29.99 in 7.0 mi Calm Calm - N/A   Clear
5:23 AM 62.6 °F - 62.6 °F 100% 29.99 in 3.0 mi Calm Calm - N/A   Clear
5:33 AM 62.6 °F - 62.6 °F 100% 29.99 in 7.0 mi Calm Calm - N/A   Clear
5:38 AM 62.6 °F - 62.6 °F 100% 29.99 in 7.0 mi Calm Calm - N/A   Clear
5:48 AM 62.6 °F - 62.6 °F 100% 30.00 in 10.0 mi NNW 2.3 mph - N/A   Clear
5:58 AM 62.2 °F - 61.5 °F 97% 30.00 in 8.0 mi NNW 2.3 mph - N/A   Clear
6:03 AM 62.6 °F - 60.8 °F 94% 30.00 in 6.0 mi North 2.3 mph - N/A   Clear
6:13 AM 62.6 °F - 60.8 °F 94% 30.00 in 7.0 mi Calm Calm - N/A   Clear
6:38 AM 62.6 °F - 60.8 °F 94% 30.00 in 10.0 mi NNW 3.5 mph - N/A   Clear
6:58 AM 61.2 °F - 60.3 °F 97% 30.01 in 10.0 mi NW 2.3 mph - N/A   Clear
7:03 AM 60.8 °F - 59.0 °F 94% 30.01 in 10.0 mi NW 2.3 mph - N/A   Clear
7:08 AM 60.8 °F - 59.0 °F 94% 30.01 in 9.0 mi NW 1.2 mph - N/A   Clear
7:18 AM 60.8 °F - 59.0 °F 94% 30.01 in 5.0 mi NNW 2.3 mph - N/A   Clear
7:23 AM 60.8 °F - 60.8 °F 100% 30.01 in 5.0 mi NNW 1.2 mph - N/A   Clear
7:54 AM 60.8 °F - 60.8 °F 100% 30.01 in 8.0 mi Calm Calm - N/A   Partly Cloudy
7:58 AM 61.7 °F - 61.2 °F 98% 30.01 in 7.0 mi Calm Calm - N/A   Partly Cloudy
8:08 AM 62.6 °F - 62.6 °F 100% 30.02 in 7.0 mi Calm Calm - N/A   Mostly Cloudy
8:18 AM 62.6 °F - 62.6 °F 100% 30.02 in 9.0 mi Calm Calm - N/A   Light Drizzle
8:23 AM 62.6 °F - 62.6 °F 100% 30.02 in 9.0 mi Calm Calm - N/A   Light Drizzle
8:38 AM 64.4 °F - 62.6 °F 94% 30.02 in 10.0 mi North 2.3 mph - N/A   Light Drizzle
8:48 AM 64.4 °F - 62.6 °F 94% 30.02 in 10.0 mi Variable 1.2 mph - N/A   Light Drizzle
8:58 AM 64.2 °F - 63.3 °F 97% 30.02 in 2.5 mi ENE 2.3 mph - 0.00 in   Light Drizzle
9:03 AM 64.4 °F - 64.4 °F 100% 30.02 in 1.5 mi Calm Calm - N/A   Light Drizzle
9:08 AM 64.4 °F - 64.4 °F 100% 30.02 in 1.0 mi Variable 2.3 mph - N/A   Light Drizzle
9:13 AM 64.4 °F - 64.4 °F 100% 30.02 in 1.0 mi East 1.2 mph - N/A   Light Drizzle
9:18 AM 66.2 °F - 64.4 °F 94% 30.02 in 2.0 mi ESE 3.5 mph - N/A   Light Drizzle
9:23 AM 66.2 °F - 64.4 °F 94% 30.03 in 6.0 mi SE 3.5 mph - N/A   Light Drizzle
9:29 AM 66.2 °F - 66.2 °F 100% 30.02 in 3.0 mi SE 4.6 mph - N/A   Overcast
9:34 AM 66.2 °F - 66.2 °F 100% 30.02 in 1.2 mi SE 3.5 mph - N/A   Overcast
9:39 AM 66.2 °F - 66.2 °F 100% 30.02 in 0.8 mi ESE 4.6 mph - N/A   Overcast
9:44 AM 66.2 °F - 66.2 °F 100% 30.02 in 1.0 mi East 3.5 mph - N/A   Overcast
9:49 AM 66.2 °F - 66.2 °F 100% 30.02 in 1.5 mi East 2.3 mph - N/A   Overcast
9:54 AM 66.2 °F - 66.2 °F 100% 30.02 in 1.8 mi SSE 3.5 mph - N/A   Overcast
9:58 AM 66.2 °F - 66.2 °F 100% 30.02 in 2.0 mi ESE 1.2 mph - 0.00 in   Overcast
10:03 AM 66.2 °F - 66.2 °F 100% 30.02 in 3.0 mi East 1.2 mph - N/A   Overcast
10:38 AM 69.8 °F - 68.0 °F 94% 30.02 in 10.0 mi East 2.3 mph - N/A   Overcast
10:58 AM 72.3 °F - 67.1 °F 84% 30.02 in 10.0 mi Variable 4.6 mph - N/A   Scattered Clouds
11:58 AM 79.9 °F - 70.0 °F 72% 30.00 in 10.0 mi SE 5.8 mph - N/A   Clear
12:58 PM 82.6 °F 85.7 °F 68.5 °F 62% 29.97 in 10.0 mi East 6.9 mph - N/A   Scattered Clouds
1:08 PM 82.4 °F 85.4 °F 68.0 °F 62% 29.97 in 10.0 mi SSE 8.1 mph - N/A   Mostly Cloudy
1:58 PM 84.9 °F 89.1 °F 69.4 °F 60% 29.95 in 10.0 mi SE 9.2 mph - N/A   Mostly Cloudy
2:58 PM 85.5 °F 89.4 °F 69.3 °F 58% 29.91 in 10.0 mi ESE 6.9 mph - N/A   Scattered Clouds
3:29 PM 86.0 °F 89.4 °F 68.0 °F 55% 29.90 in 10.0 mi SSE 12.7 mph - N/A   Scattered Clouds
3:58 PM 86.0 °F 89.4 °F 68.4 °F 55% 29.89 in 10.0 mi SE 9.2 mph - N/A   Scattered Clouds
4:58 PM 83.7 °F 87.0 °F 68.5 °F 60% 29.88 in 10.0 mi SE 8.1 mph - N/A   Clear
5:58 PM 81.5 °F 85.1 °F 70.2 °F 68% 29.87 in 10.0 mi SE 5.8 mph - N/A   Clear
6:58 PM 78.1 °F - 71.4 °F 80% 29.88 in 10.0 mi ESE 5.8 mph - N/A   Clear
7:58 PM 77.0 °F - 70.9 °F 81% 29.88 in 10.0 mi SE 8.1 mph - N/A   Mostly Cloudy
8:33 PM 77.0 °F - 71.6 °F 83% 29.89 in 10.0 mi SE 10.4 mph - N/A   Light Drizzle
8:38 PM 75.2 °F - 71.6 °F 89% 29.89 in 4.0 mi South 8.1 mph - N/A Rain Light Rain
8:48 PM 75.2 °F - 71.6 °F 89% 29.90 in 8.0 mi SSW 5.8 mph - N/A   Light Drizzle
8:53 PM 75.2 °F - 71.6 °F 89% 29.90 in 7.0 mi SW 11.5 mph - N/A Rain Light Rain
8:58 PM 75.2 °F - 72.1 °F 90% 29.91 in 3.0 mi South 5.8 mph - 0.02 in Rain Light Rain
9:03 PM 75.2 °F - 71.6 °F 89% 29.90 in 2.5 mi South 5.8 mph - N/A Rain Light Rain
9:08 PM 75.2 °F - 71.6 °F 89% 29.90 in 6.0 mi South 4.6 mph - N/A Rain Light Rain
9:13 PM 75.2 °F - 71.6 °F 89% 29.90 in 10.0 mi South 3.5 mph - N/A Rain Light Rain
9:18 PM 75.2 °F - 71.6 °F 89% 29.89 in 10.0 mi SSE 5.8 mph - N/A   Overcast
9:58 PM 73.6 °F - 72.1 °F 95% 29.91 in 10.0 mi SE 4.6 mph - 0.02 in   Mostly Cloudy
10:58 PM 72.9 °F - 71.6 °F 96% 29.89 in 10.0 mi SE 4.6 mph - N/A   Mostly Cloudy
11:58 PM 72.9 °F - 71.6 °F 96% 29.88 in 10.0 mi SSE 5.8 mph - N/A   Scattered Clouds